| time (UTC) | temp C | wind direction | speed KPH | gust KPH | rain 1hr cm | rain 24hr cm | rain mn cm | humidity % | barometer mb |
| 20260906225836 | 23 | 66 | 6.4 | 19.3 | 0.00 | 0.00 | 0.00 | 71 | 1014.1 |
| 20260906225335 | 23 | 54 | 8.0 | 22.5 | 0.00 | 0.00 | 0.00 | 71 | 1014.1 |
| 20260906224835 | 23 | 40 | 11.3 | 25.7 | 0.00 | 0.00 | 0.00 | 70 | 1014.1 |
| 20260906224339 | 23 | 53 | 9.7 | 25.7 | 0.00 | 0.00 | 0.00 | 69 | 1014.4 |
| 20260906223833 | 23 | 39 | 8.0 | 25.7 | 0.00 | 0.00 | 0.00 | 68 | 1014.4 |
| 20260906223333 | 23 | 53 | 9.7 | 20.9 | 0.00 | 0.00 | 0.00 | 67 | 1014.4 |
| 20260906222835 | 23 | 176 | 9.7 | 25.7 | 0.00 | 0.00 | 0.00 | 66 | 1014.3 |
| 20260906222333 | 23 | 55 | 11.3 | 25.7 | 0.00 | 0.00 | 0.00 | 64 | 1014.3 |
| 20260906221828 | 24 | 49 | 9.7 | 24.1 | 0.00 | 0.00 | 0.00 | 63 | 1014.3 |
| 20260906221328 | 24 | 82 | 8.0 | 20.9 | 0.00 | 0.00 | 0.00 | 61 | 1014.6 |
| 20260906220828 | 24 | 26 | 8.0 | 22.5 | 0.00 | 0.00 | 0.00 | 59 | 1014.6 |
| 20260906220327 | 25 | 37 | 6.4 | 22.5 | 0.00 | 0.00 | 0.00 | 56 | 1014.6 |
| 20260906215828 | 25 | 346 | 8.0 | 19.3 | 0.00 | 0.00 | 0.00 | 54 | 1014.9 |
| 20260906215328 | 25 | 351 | 9.7 | 20.9 | 0.00 | 0.00 | 0.00 | 52 | 1014.9 |
| 20260906214832 | 25 | 51 | 8.0 | 20.9 | 0.00 | 0.00 | 0.00 | 50 | 1014.9 |
| 20260906214328 | 25 | 53 | 8.0 | 17.7 | 0.00 | 0.00 | 0.00 | 48 | 1015.0 |
| 20260906213828 | 25 | 19 | 8.0 | 20.9 | 0.00 | 0.00 | 0.00 | 49 | 1015.0 |
| 20260906213329 | 25 | 89 | 8.0 | 20.9 | 0.00 | 0.00 | 0.00 | 45 | 1015.0 |
| 20260906213041 | 25 | 334 | 8.0 | 19.3 | 0.00 | 0.00 | 0.00 | 45 | 1015.2 |
| 20260906212529 | 25 | 44 | 9.7 | 19.3 | 0.00 | 0.00 | 0.00 | 46 | 1015.2 |
| 20260906211758 | 25 | 37 | 9.7 | 19.3 | 0.00 | 0.00 | 0.00 | 45 | 1015.2 |
| 20260906211247 | 25 | 9 | 9.7 | 24.1 | 0.00 | 0.00 | 0.00 | 45 | 1015.0 |
| 20260906210739 | 25 | 99 | 11.3 | 24.1 | 0.00 | 0.00 | 0.00 | 46 | 1015.0 |
| 20260906210231 | 25 | 37 | 9.7 | 22.5 | 0.00 | 0.00 | 0.00 | 48 | 1015.0 |
| 20260906205725 | 25 | 5 | 9.7 | 20.9 | 0.00 | 0.00 | 0.00 | 49 | 1015.0 |
| 20260906205446 | 25 | 45 | 11.3 | 20.9 | 0.00 | 0.00 | 0.00 | 51 | 1015.0 |
| 20260906204713 | 25 | 350 | 11.3 | 20.9 | 0.00 | 0.00 | 0.00 | 50 | 1015.0 |
| 20260906204203 | 25 | 48 | 9.7 | 22.5 | 0.00 | 0.00 | 0.00 | 52 | 1015.0 |
| 20260906203701 | 25 | 35 | 9.7 | 24.1 | 0.00 | 0.00 | 0.00 | 53 | 1015.0 |
| 20260906203157 | 25 | 63 | 9.7 | 24.1 | 0.00 | 0.00 | 0.00 | 53 | 1015.0 |
| 20260906202651 | 25 | 26 | 9.7 | 20.9 | 0.00 | 0.00 | 0.00 | 56 | 1015.2 |
| 20260906202147 | 25 | 51 | 11.3 | 20.9 | 0.00 | 0.00 | 0.00 | 55 | 1015.2 |
| 20260906201635 | 25 | 36 | 11.3 | 20.9 | 0.00 | 0.00 | 0.00 | 54 | 1015.2 |
| 20260906201131 | 25 | 88 | 11.3 | 33.8 | 0.00 | 0.00 | 0.00 | 54 | 1015.0 |
| 20260906200626 | 25 | 69 | 11.3 | 33.8 | 0.00 | 0.00 | 0.00 | 54 | 1015.0 |
| 20260906200119 | 26 | 27 | 11.3 | 22.5 | 0.00 | 0.00 | 0.00 | 55 | 1015.0 |
| 20260906195615 | 26 | 61 | 9.7 | 22.5 | 0.00 | 0.00 | 0.00 | 56 | 1015.0 |
| 20260906195104 | 26 | 38 | 11.3 | 24.1 | 0.00 | 0.00 | 0.00 | 55 | 1015.0 |
| 20260906194604 | 26 | 65 | 11.3 | 25.7 | 0.00 | 0.00 | 0.00 | 55 | 1015.0 |
| 20260906194057 | 26 | 63 | 12.9 | 25.7 | 0.00 | 0.00 | 0.00 | 56 | 1015.2 |
| 20260906193553 | 25 | 0 | 11.3 | 24.1 | 0.00 | 0.00 | 0.00 | 58 | 1015.2 |
| 20260906193045 | 25 | 94 | 11.3 | 24.1 | 0.00 | 0.00 | 0.00 | 59 | 1015.2 |
| 20260906192802 | 25 | 64 | 12.9 | 25.7 | 0.00 | 0.00 | 0.00 | 57 | 1015.3 |
| 20260906192037 | 25 | 28 | 11.3 | 25.7 | 0.00 | 0.00 | 0.00 | 59 | 1015.3 |
| 20260906191525 | 26 | 74 | 9.7 | 25.7 | 0.00 | 0.00 | 0.00 | 59 | 1015.3 |
| 20260906191020 | 25 | 84 | 9.7 | 22.5 | 0.00 | 0.00 | 0.00 | 62 | 1015.3 |
| 20260906190527 | 25 | 88 | 11.3 | 22.5 | 0.00 | 0.00 | 0.00 | 61 | 1015.3 |
| 20260906190007 | 25 | 49 | 12.9 | 27.4 | 0.00 | 0.00 | 0.00 | 62 | 1015.3 |
| 20260906185500 | 25 | 40 | 12.9 | 27.4 | 0.00 | 0.00 | 0.00 | 60 | 1015.4 |
| 20260906185433 | 25 | 19 | 11.3 | 25.7 | 0.00 | 0.00 | 0.00 | 60 | 1015.4 |
| 20260906184448 | 25 | 5 | 11.3 | 25.7 | 0.00 | 0.00 | 0.00 | 60 | 1015.6 |
| 20260906183942 | 25 | 59 | 9.7 | 22.5 | 0.00 | 0.00 | 0.00 | 61 | 1015.6 |
| 20260906183432 | 25 | 43 | 9.7 | 22.5 | 0.00 | 0.00 | 0.00 | 61 | 1015.6 |
| 20260906182932 | 25 | 63 | 11.3 | 20.9 | 0.00 | 0.00 | 0.00 | 61 | 1015.6 |
| 20260906182643 | 25 | 85 | 12.9 | 25.7 | 0.00 | 0.00 | 0.00 | 62 | 1015.6 |
| 20260906181922 | 25 | 51 | 12.9 | 27.4 | 0.00 | 0.00 | 0.00 | 63 | 1015.6 |
| 20260906181412 | 25 | 57 | 12.9 | 27.4 | 0.00 | 0.00 | 0.00 | 63 | 1015.7 |
| 20260906180905 | 25 | 74 | 9.7 | 25.7 | 0.00 | 0.00 | 0.00 | 63 | 1015.7 |
| 20260906180359 | 25 | 74 | 9.7 | 25.7 | 0.00 | 0.00 | 0.00 | 64 | 1015.7 |
| 20260906175852 | 25 | 34 | 12.9 | 27.4 | 0.00 | 0.00 | 0.00 | 62 | 1015.8 |
| 20260906175353 | 25 | 55 | 14.5 | 27.4 | 0.00 | 0.00 | 0.00 | 62 | 1015.8 |
| 20260906174833 | 26 | 95 | 11.3 | 24.1 | 0.00 | 0.00 | 0.00 | 60 | 1015.8 |
| 20260906174333 | 26 | 126 | 8.0 | 24.1 | 0.00 | 0.00 | 0.00 | 60 | 1016.0 |
| 20260906173832 | 26 | 71 | 8.0 | 20.9 | 0.00 | 0.00 | 0.00 | 61 | 1016.0 |
| 20260906173557 | 26 | 78 | 6.4 | 17.7 | 0.00 | 0.00 | 0.00 | 61 | 1016.0 |
| 20260906172833 | 26 | 355 | 6.4 | 17.7 | 0.00 | 0.00 | 0.00 | 63 | 1016.1 |
| 20260906172333 | 25 | 146 | 8.0 | 25.7 | 0.00 | 0.00 | 0.00 | 62 | 1016.1 |
| 20260906171833 | 25 | 60 | 9.7 | 25.7 | 0.00 | 0.00 | 0.00 | 63 | 1016.1 |
| 20260906171333 | 26 | 11 | 9.7 | 20.9 | 0.00 | 0.00 | 0.00 | 62 | 1016.1 |
| 20260906170832 | 26 | 43 | 8.0 | 20.9 | 0.00 | 0.00 | 0.00 | 62 | 1016.1 |
| 20260906170327 | 26 | 98 | 6.4 | 20.9 | 0.00 | 0.00 | 0.00 | 62 | 1016.1 |
| 20260906165819 | 25 | 65 | 9.7 | 20.9 | 0.00 | 0.00 | 0.00 | 61 | 1016.1 |
| 20260906165314 | 25 | 272 | 11.3 | 20.9 | 0.00 | 0.00 | 0.00 | 62 | 1016.1 |
| 20260906164807 | 25 | 53 | 11.3 | 24.1 | 0.00 | 0.00 | 0.00 | 64 | 1016.1 |
| 20260906164302 | 25 | 34 | 11.3 | 24.1 | 0.00 | 0.00 | 0.00 | 62 | 1016.1 |
| 20260906163756 | 25 | 79 | 8.0 | 20.9 | 0.00 | 0.00 | 0.00 | 62 | 1016.1 |
| 20260906163249 | 25 | 69 | 8.0 | 19.3 | 0.00 | 0.00 | 0.00 | 62 | 1016.1 |
| 20260906162739 | 25 | 49 | 8.0 | 19.3 | 0.00 | 0.00 | 0.00 | 65 | 1016.2 |
| 20260906162236 | 25 | 54 | 8.0 | 19.3 | 0.00 | 0.00 | 0.00 | 67 | 1016.2 |
| 20260906161730 | 25 | 19 | 8.0 | 22.5 | 0.00 | 0.00 | 0.00 | 67 | 1016.2 |
| 20260906161224 | 25 | 65 | 8.0 | 22.5 | 0.00 | 0.00 | 0.00 | 66 | 1016.1 |
| 20260906160718 | 25 | 104 | 8.0 | 16.1 | 0.00 | 0.00 | 0.00 | 67 | 1016.1 |
| 20260906160430 | 25 | 49 | 6.4 | 14.5 | 0.00 | 0.00 | 0.00 | 67 | 1016.1 |
| 20260906155934 | 25 | 86 | 6.4 | 14.5 | 0.00 | 0.00 | 0.00 | 68 | 1016.1 |
| 20260906155200 | 25 | 46 | 6.4 | 14.5 | 0.00 | 0.00 | 0.00 | 67 | 1016.1 |
| 20260906154917 | 24 | 80 | 6.4 | 14.5 | 0.00 | 0.00 | 0.00 | 70 | 1016.1 |
| 20260906154414 | 24 | 19 | 4.8 | 14.5 | 0.00 | 0.00 | 0.00 | 70 | 1016.1 |
| 20260906153643 | 24 | 54 | 6.4 | 14.5 | 0.00 | 0.00 | 0.00 | 71 | 1016.1 |
| 20260906153401 | 24 | 132 | 6.4 | 14.5 | 0.00 | 0.00 | 0.00 | 72 | 1016.1 |
| 20260906152625 | 24 | 92 | 6.4 | 14.5 | 0.00 | 0.00 | 0.00 | 73 | 1016.2 |
| 20260906152124 | 24 | 92 | 4.8 | 11.3 | 0.00 | 0.00 | 0.00 | 75 | 1016.2 |
| 20260906151619 | 23 | 25 | 4.8 | 9.7 | 0.00 | 0.00 | 0.00 | 75 | 1016.2 |
| 20260906151112 | 23 | 80 | 4.8 | 11.3 | 0.00 | 0.00 | 0.00 | 76 | 1016.1 |
| 20260906150608 | 23 | 56 | 3.2 | 11.3 | 0.00 | 0.00 | 0.00 | 77 | 1016.1 |
| 20260906150056 | 23 | 58 | 3.2 | 12.9 | 0.00 | 0.00 | 0.00 | 77 | 1016.1 |
| 20260906145556 | 23 | 52 | 4.8 | 12.9 | 0.00 | 0.00 | 0.00 | 76 | 1016.0 |
| 20260906145050 | 23 | 124 | 6.4 | 14.5 | 0.00 | 0.00 | 0.00 | 76 | 1016.0 |
| 20260906144542 | 23 | 59 | 4.8 | 14.5 | 0.00 | 0.00 | 0.00 | 76 | 1016.0 |
| 20260906144037 | 23 | 80 | 3.2 | 9.7 | 0.00 | 0.00 | 0.00 | 77 | 1015.7 |
| 20260906143527 | 23 | 44 | 4.8 | 12.9 | 0.00 | 0.00 | 0.00 | 78 | 1015.7 |
| 20260906143024 | 23 | 53 | 4.8 | 12.9 | 0.00 | 0.00 | 0.00 | 77 | 1015.7 |
| 20260906142518 | 23 | 76 | 4.8 | 12.9 | 0.00 | 0.00 | 0.00 | 78 | 1015.6 |
| 20260906142011 | 23 | 126 | 4.8 | 11.3 | 0.00 | 0.00 | 0.00 | 78 | 1015.6 |
| 20260906141723 | 23 | 57 | 4.8 | 11.3 | 0.00 | 0.00 | 0.00 | 80 | 1015.6 |
| 20260906141224 | 23 | 5 | 3.2 | 11.3 | 0.00 | 0.00 | 0.00 | 79 | 1015.7 |
| 20260906140454 | 23 | 63 | 3.2 | 11.3 | 0.00 | 0.00 | 0.00 | 80 | 1015.7 |
| 20260906135948 | 23 | 94 | 3.2 | 12.9 | 0.00 | 0.00 | 0.00 | 80 | 1015.7 |
| 20260906135441 | 22 | 71 | 3.2 | 12.9 | 0.00 | 0.00 | 0.00 | 81 | 1015.7 |
| 20260906134931 | 22 | 91 | 3.2 | 12.9 | 0.00 | 0.00 | 0.00 | 81 | 1015.7 |
| 20260906134419 | 22 | 151 | 3.2 | 12.9 | 0.00 | 0.00 | 0.00 | 81 | 1015.6 |
| 20260906133909 | 22 | 82 | 3.2 | 12.9 | 0.00 | 0.00 | 0.00 | 81 | 1015.6 |
| 20260906133408 | 22 | 88 | 3.2 | 11.3 | 0.00 | 0.00 | 0.00 | 81 | 1015.6 |
| 20260906132909 | 22 | 92 | 3.2 | 11.3 | 0.00 | 0.00 | 0.00 | 82 | 1015.7 |
| 20260906132407 | 22 | 78 | 3.2 | 11.3 | 0.00 | 0.00 | 0.00 | 83 | 1015.7 |
| 20260906131909 | 22 | 64 | 3.2 | 11.3 | 0.00 | 0.00 | 0.00 | 83 | 1015.7 |
| 20260906131409 | 22 | 87 | 4.8 | 12.9 | 0.00 | 0.00 | 0.00 | 83 | 1015.6 |
| 20260906130908 | 22 | 67 | 4.8 | 12.9 | 0.00 | 0.00 | 0.00 | 84 | 1015.6 |
| 20260906130637 | 22 | 89 | 3.2 | 9.7 | 0.00 | 0.00 | 0.00 | 84 | 1015.6 |
| 20260906125917 | 22 | 146 | 3.2 | 8.0 | 0.00 | 0.00 | 0.00 | 85 | 1015.5 |
| 20260906125404 | 21 | 151 | 1.6 | 8.0 | 0.00 | 0.00 | 0.00 | 86 | 1015.5 |
| 20260906124858 | 21 | 39 | 1.6 | 6.4 | 0.00 | 0.00 | 0.00 | 87 | 1015.5 |
| 20260906124352 | 21 | 119 | 3.2 | 8.0 | 0.00 | 0.00 | 0.00 | 87 | 1015.3 |
| 20260906123845 | 21 | 127 | 3.2 | 9.7 | 0.00 | 0.00 | 0.00 | 88 | 1015.3 |
| 20260906123342 | 21 | 69 | 3.2 | 12.9 | 0.00 | 0.00 | 0.00 | 89 | 1015.3 |
| 20260906122835 | 21 | 74 | 1.6 | 6.4 | 0.00 | 0.00 | 0.00 | 90 | 1015.0 |
| 20260906122540 | 21 | 46 | 1.6 | 6.4 | 0.00 | 0.00 | 0.00 | 91 | 1015.0 |
| 20260906121822 | 21 | 67 | 3.2 | 6.4 | 0.00 | 0.00 | 0.00 | 91 | 1015.0 |
| 20260906121317 | 20 | 59 | 1.6 | 8.0 | 0.00 | 0.00 | 0.00 | 92 | 1014.6 |
| 20260906120810 | 20 | 50 | 1.6 | 8.0 | 0.00 | 0.00 | 0.00 | 92 | 1014.6 |
| 20260906120527 | 20 | 34 | 1.6 | 4.8 | 0.00 | 0.00 | 0.00 | 93 | 1014.6 |
| 20260906115756 | 20 | 48 | 0.0 | 4.8 | 0.00 | 0.00 | 0.00 | 93 | 1014.5 |
| 20260906115244 | 20 | 52 | 0.0 | 0.0 | 0.00 | 0.00 | 0.00 | 93 | 1014.5 |
| 20260906114832 | 20 | 52 | 0.0 | 0.0 | 0.00 | 0.00 | 0.00 | 93 | 1014.5 |
| 20260906110652 | 20 | 52 | 0.0 | 0.0 | 0.00 | 0.00 | 0.00 | 93 | 1013.9 |
| 20260906110145 | 20 | 52 | 0.0 | 0.0 | 0.00 | 0.00 | 0.00 | 92 | 1013.9 |
| 20260906105645 | 20 | 52 | 0.0 | 0.0 | 0.00 | 0.00 | 0.00 | 92 | 1013.9 |
| 20260906105139 | 20 | 52 | 0.0 | 0.0 | 0.00 | 0.00 | 0.00 | 92 | 1013.9 |
| 20260906104639 | 20 | 52 | 0.0 | 0.0 | 0.00 | 0.00 | 0.00 | 92 | 1013.9 |
| 20260906104139 | 20 | 52 | 0.0 | 0.0 | 0.00 | 0.00 | 0.00 | 92 | 1013.7 |
| 20260906103907 | 20 | 52 | 0.0 | 0.0 | 0.00 | 0.00 | 0.00 | 92 | 1013.7 |
| 20260906103137 | 20 | 52 | 0.0 | 0.0 | 0.00 | 0.00 | 0.00 | 92 | 1013.7 |
| 20260906102637 | 20 | 52 | 0.0 | 0.0 | 0.00 | 0.00 | 0.00 | 92 | 1013.7 |
| 20260906102137 | 20 | 52 | 0.0 | 0.0 | 0.00 | 0.00 | 0.00 | 92 | 1013.7 |
| 20260906101900 | 20 | 52 | 0.0 | 0.0 | 0.00 | 0.00 | 0.00 | 92 | 1013.7 |
| 20260906101135 | 20 | 52 | 0.0 | 0.0 | 0.00 | 0.00 | 0.00 | 92 | 1013.4 |
| 20260906100635 | 20 | 52 | 0.0 | 0.0 | 0.00 | 0.00 | 0.00 | 92 | 1013.4 |
| 20260906100134 | 20 | 52 | 0.0 | 0.0 | 0.00 | 0.00 | 0.00 | 92 | 1013.4 |
| 20260906095634 | 20 | 52 | 0.0 | 0.0 | 0.00 | 0.00 | 0.00 | 92 | 1013.5 |
| 20260906095352 | 20 | 52 | 0.0 | 0.0 | 0.00 | 0.00 | 0.00 | 91 | 1013.5 |
| 20260906094631 | 20 | 52 | 0.0 | 3.2 | 0.00 | 0.00 | 0.00 | 91 | 1013.5 |
| 20260906094132 | 20 | 52 | 0.0 | 3.2 | 0.00 | 0.00 | 0.00 | 91 | 1013.4 |
| 20260906093630 | 21 | 52 | 0.0 | 1.6 | 0.00 | 0.00 | 0.00 | 91 | 1013.4 |
| 20260906093128 | 21 | 52 | 1.6 | 3.2 | 0.00 | 0.00 | 0.00 | 91 | 1013.4 |
| 20260906092632 | 21 | 52 | 1.6 | 3.2 | 0.00 | 0.00 | 0.00 | 91 | 1013.3 |
| 20260906092126 | 21 | 53 | 0.0 | 3.2 | 0.00 | 0.00 | 0.00 | 91 | 1013.3 |
| 20260906091613 | 21 | 46 | 0.0 | 3.2 | 0.00 | 0.00 | 0.00 | 90 | 1013.3 |
| 20260906091113 | 21 | 46 | 1.6 | 3.2 | 0.00 | 0.00 | 0.00 | 90 | 1013.3 |
| 20260906090613 | 21 | 50 | 1.6 | 4.8 | 0.00 | 0.00 | 0.00 | 90 | 1013.3 |
| 20260906090112 | 21 | 59 | 1.6 | 4.8 | 0.00 | 0.00 | 0.00 | 90 | 1013.3 |
| 20260906090057 | 21 | 61 | 1.6 | 4.8 | 0.00 | 0.00 | 0.00 | 90 | 1013.2 |
| 20260906085114 | 21 | 49 | 1.6 | 4.8 | 0.00 | 0.00 | 0.00 | 90 | 1013.2 |
| 20260906084613 | 21 | 47 | 0.0 | 4.8 | 0.00 | 0.00 | 0.00 | 90 | 1013.2 |
| 20260906084112 | 21 | 40 | 0.0 | 0.0 | 0.00 | 0.00 | 0.00 | 90 | 1013.3 |
| 20260906083613 | 21 | 63 | 0.0 | 1.6 | 0.00 | 0.00 | 0.00 | 89 | 1013.3 |
| 20260906083110 | 21 | 58 | 0.0 | 6.4 | 0.00 | 0.00 | 0.00 | 89 | 1013.3 |
| 20260906082557 | 22 | 47 | 1.6 | 6.4 | 0.00 | 0.00 | 0.00 | 89 | 1013.4 |
| 20260906082058 | 22 | 56 | 3.2 | 8.0 | 0.00 | 0.00 | 0.00 | 89 | 1013.4 |
| 20260906081551 | 22 | 78 | 3.2 | 11.3 | 0.00 | 0.00 | 0.00 | 89 | 1013.4 |
| 20260906081044 | 22 | 55 | 3.2 | 11.3 | 0.00 | 0.00 | 0.00 | 88 | 1013.5 |
| 20260906080539 | 22 | 60 | 3.2 | 8.0 | 0.00 | 0.00 | 0.00 | 88 | 1013.5 |
| 20260906080028 | 22 | 49 | 1.6 | 6.4 | 0.00 | 0.00 | 0.00 | 88 | 1013.5 |
| 20260906075527 | 22 | 26 | 3.2 | 8.0 | 0.00 | 0.00 | 0.00 | 88 | 1013.5 |
| 20260906075508 | 22 | 26 | 3.2 | 8.0 | 0.00 | 0.00 | 0.00 | 88 | 1013.5 |
| 20260906074514 | 22 | 61 | 3.2 | 6.4 | 0.00 | 0.00 | 0.00 | 88 | 1013.5 |
| 20260906074008 | 22 | 28 | 1.6 | 6.4 | 0.00 | 0.00 | 0.00 | 87 | 1013.5 |
| 20260906073504 | 22 | 58 | 1.6 | 11.3 | 0.00 | 0.00 | 0.00 | 87 | 1013.5 |
| 20260906072957 | 22 | 17 | 3.2 | 11.3 | 0.00 | 0.00 | 0.00 | 87 | 1013.4 |
| 20260906072447 | 22 | 64 | 3.2 | 8.0 | 0.00 | 0.00 | 0.00 | 87 | 1013.4 |
| 20260906072203 | 22 | 29 | 3.2 | 11.3 | 0.00 | 0.00 | 0.00 | 88 | 1013.4 |
| 20260906071439 | 22 | 72 | 3.2 | 11.3 | 0.00 | 0.00 | 0.00 | 88 | 1013.5 |
| 20260906071153 | 22 | 51 | 3.2 | 8.0 | 0.00 | 0.00 | 0.00 | 88 | 1013.5 |
| 20260906070426 | 22 | 50 | 3.2 | 12.9 | 0.00 | 0.00 | 0.00 | 88 | 1013.5 |
| 20260906065915 | 22 | 61 | 3.2 | 12.9 | 0.00 | 0.00 | 0.00 | 88 | 1013.5 |
| 20260906065414 | 22 | 24 | 4.8 | 11.3 | 0.00 | 0.00 | 0.00 | 88 | 1013.5 |
| 20260906064909 | 22 | 41 | 4.8 | 12.9 | 0.00 | 0.00 | 0.00 | 88 | 1013.5 |
| 20260906064403 | 22 | 69 | 4.8 | 14.5 | 0.00 | 0.00 | 0.00 | 88 | 1013.5 |
| 20260906063857 | 22 | 77 | 6.4 | 17.7 | 0.00 | 0.00 | 0.00 | 88 | 1013.5 |
| 20260906063351 | 22 | 63 | 6.4 | 17.7 | 0.00 | 0.00 | 0.00 | 88 | 1013.5 |
| 20260906062846 | 22 | 28 | 6.4 | 14.5 | 0.00 | 0.00 | 0.00 | 88 | 1013.5 |
| 20260906062336 | 22 | 81 | 6.4 | 14.5 | 0.00 | 0.00 | 0.00 | 88 | 1013.5 |
| 20260906061836 | 22 | 58 | 6.4 | 14.5 | 0.00 | 0.00 | 0.00 | 88 | 1013.5 |
| 20260906061336 | 22 | 59 | 6.4 | 12.9 | 0.00 | 0.00 | 0.00 | 88 | 1013.4 |
| 20260906060836 | 22 | 61 | 4.8 | 12.9 | 0.00 | 0.00 | 0.00 | 88 | 1013.4 |
| 20260906060336 | 22 | 51 | 4.8 | 12.9 | 0.00 | 0.00 | 0.00 | 88 | 1013.4 |
| 20260906055836 | 22 | 45 | 4.8 | 12.9 | 0.00 | 0.00 | 0.00 | 87 | 1013.4 |
| 20260906055337 | 22 | 38 | 4.8 | 8.0 | 0.00 | 0.00 | 0.00 | 87 | 1013.4 |
| 20260906055100 | 22 | 5 | 4.8 | 11.3 | 0.00 | 0.00 | 0.00 | 87 | 1013.4 |
| 20260906054334 | 22 | 55 | 4.8 | 16.1 | 0.00 | 0.00 | 0.00 | 87 | 1013.3 |
| 20260906053835 | 22 | 18 | 4.8 | 16.1 | 0.00 | 0.00 | 0.00 | 87 | 1013.3 |
| 20260906053335 | 22 | 32 | 4.8 | 12.9 | 0.00 | 0.00 | 0.00 | 87 | 1013.3 |
| 20260906052835 | 22 | 57 | 4.8 | 12.9 | 0.00 | 0.00 | 0.00 | 87 | 1013.1 |
| 20260906052334 | 22 | 32 | 4.8 | 9.7 | 0.00 | 0.00 | 0.00 | 87 | 1013.1 |
| 20260906051837 | 22 | 32 | 6.4 | 12.9 | 0.00 | 0.00 | 0.00 | 87 | 1013.1 |
| 20260906051337 | 22 | 17 | 4.8 | 12.9 | 0.00 | 0.00 | 0.00 | 87 | 1012.9 |
| 20260906051105 | 22 | 15 | 6.4 | 12.9 | 0.00 | 0.00 | 0.00 | 87 | 1012.9 |
| 20260906050331 | 22 | 65 | 8.0 | 16.1 | 0.00 | 0.00 | 0.00 | 87 | 1012.9 |
| 20260906050046 | 22 | 61 | 8.0 | 16.1 | 0.00 | 0.00 | 0.00 | 87 | 1012.7 |
| 20260906045317 | 22 | 78 | 8.0 | 17.7 | 0.00 | 0.00 | 0.00 | 87 | 1012.7 |
| 20260906044808 | 22 | 81 | 8.0 | 17.7 | 0.00 | 0.00 | 0.00 | 87 | 1012.7 |
| 20260906044524 | 22 | 59 | 8.0 | 16.1 | 0.00 | 0.00 | 0.00 | 87 | 1012.6 |
| 20260906044023 | 22 | 85 | 6.4 | 17.7 | 0.00 | 0.00 | 0.00 | 87 | 1012.6 |
| 20260906043252 | 22 | 61 | 6.4 | 17.7 | 0.00 | 0.00 | 0.00 | 87 | 1012.6 |
| 20260906043015 | 22 | 47 | 8.0 | 17.7 | 0.00 | 0.00 | 0.00 | 87 | 1012.5 |
| 20260906042240 | 22 | 15 | 8.0 | 22.5 | 0.00 | 0.00 | 0.00 | 87 | 1012.5 |
| 20260906041732 | 22 | 78 | 8.0 | 22.5 | 0.00 | 0.00 | 0.00 | 87 | 1012.5 |
| 20260906041224 | 22 | 65 | 8.0 | 16.1 | 0.00 | 0.00 | 0.00 | 87 | 1012.5 |
| 20260906040714 | 22 | 59 | 9.7 | 24.1 | 0.00 | 0.00 | 0.00 | 87 | 1012.5 |
| 20260906040206 | 22 | 37 | 9.7 | 24.1 | 0.00 | 0.00 | 0.00 | 87 | 1012.5 |
| 20260906035706 | 22 | 52 | 9.7 | 19.3 | 0.00 | 0.00 | 0.00 | 87 | 1012.4 |
| 20260906035205 | 22 | 52 | 9.7 | 19.3 | 0.00 | 0.00 | 0.00 | 87 | 1012.4 |
| 20260906034705 | 22 | 72 | 9.7 | 19.3 | 0.00 | 0.00 | 0.00 | 87 | 1012.4 |
| 20260906034206 | 22 | 46 | 8.0 | 19.3 | 0.00 | 0.00 | 0.00 | 87 | 1012.4 |
| 20260906033706 | 22 | 83 | 9.7 | 27.4 | 0.00 | 0.00 | 0.00 | 87 | 1012.4 |
| 20260906033208 | 22 | 107 | 9.7 | 27.4 | 0.00 | 0.00 | 0.00 | 87 | 1012.4 |
| 20260906032709 | 22 | 49 | 8.0 | 17.7 | 0.00 | 0.00 | 0.00 | 86 | 1012.4 |
| 20260906032207 | 22 | 60 | 11.3 | 20.9 | 0.00 | 0.00 | 0.00 | 86 | 1012.4 |
| 20260906031929 | 22 | 45 | 12.9 | 24.1 | 0.00 | 0.00 | 0.00 | 86 | 1012.4 |
| 20260906031159 | 22 | 46 | 9.7 | 24.1 | 0.00 | 0.00 | 0.00 | 87 | 1012.3 |
| 20260906030652 | 22 | 14 | 8.0 | 22.5 | 0.00 | 0.00 | 0.00 | 87 | 1012.3 |
| 20260906030643 | 22 | 36 | 9.7 | 22.5 | 0.00 | 0.00 | 0.00 | 87 | 1012.3 |
| 20260906025635 | 22 | 77 | 9.7 | 22.5 | 0.00 | 0.00 | 0.00 | 87 | 1012.3 |
| 20260906025134 | 22 | 85 | 9.7 | 22.5 | 0.00 | 0.00 | 0.00 | 87 | 1012.3 |
| 20260906024628 | 22 | 86 | 8.0 | 22.5 | 0.00 | 0.00 | 0.00 | 87 | 1012.3 |
| 20260906024122 | 22 | 47 | 6.4 | 17.7 | 0.00 | 0.00 | 0.00 | 86 | 1012.3 |
| 20260906023616 | 22 | 35 | 6.4 | 19.3 | 0.00 | 0.00 | 0.00 | 86 | 1012.3 |
| 20260906023111 | 22 | 52 | 8.0 | 19.3 | 0.00 | 0.00 | 0.00 | 86 | 1012.3 |
| 20260906022605 | 22 | 105 | 8.0 | 19.3 | 0.00 | 0.00 | 0.00 | 86 | 1012.4 |
| 20260906022055 | 22 | 355 | 9.7 | 19.3 | 0.00 | 0.00 | 0.00 | 86 | 1012.4 |
| 20260906021554 | 22 | 24 | 9.7 | 19.3 | 0.00 | 0.00 | 0.00 | 86 | 1012.4 |
| 20260906021048 | 22 | 71 | 8.0 | 17.7 | 0.00 | 0.00 | 0.00 | 86 | 1012.4 |
| 20260906020541 | 22 | 46 | 9.7 | 17.7 | 0.00 | 0.00 | 0.00 | 86 | 1012.4 |
| 20260906020036 | 22 | 23 | 8.0 | 19.3 | 0.00 | 0.00 | 0.00 | 86 | 1012.4 |
| 20260906015525 | 22 | 35 | 8.0 | 22.5 | 0.00 | 0.00 | 0.00 | 86 | 1012.4 |
| 20260906015023 | 22 | 36 | 8.0 | 22.5 | 0.00 | 0.00 | 0.00 | 86 | 1012.4 |
| 20260906014517 | 22 | 28 | 8.0 | 20.9 | 0.00 | 0.00 | 0.00 | 86 | 1012.4 |
| 20260906014009 | 22 | 64 | 9.7 | 22.5 | 0.00 | 0.00 | 0.00 | 86 | 1012.4 |
| 20260906013504 | 22 | 66 | 9.7 | 27.4 | 0.00 | 0.00 | 0.00 | 86 | 1012.4 |
| 20260906012958 | 22 | 45 | 11.3 | 27.4 | 0.00 | 0.00 | 0.00 | 86 | 1012.4 |
| 20260906012452 | 22 | 71 | 11.3 | 25.7 | 0.00 | 0.00 | 0.00 | 86 | 1012.4 |
| 20260906012203 | 22 | 5 | 11.3 | 25.7 | 0.00 | 0.00 | 0.00 | 85 | 1012.4 |
| 20260906011658 | 22 | 50 | 9.7 | 25.7 | 0.00 | 0.00 | 0.00 | 85 | 1012.3 |
| 20260906010934 | 22 | 80 | 6.4 | 19.3 | 0.00 | 0.00 | 0.00 | 84 | 1012.3 |
| 20260906010427 | 22 | 59 | 8.0 | 19.3 | 0.00 | 0.00 | 0.00 | 84 | 1012.3 |
| 20260906005923 | 22 | 355 | 8.0 | 20.9 | 0.00 | 0.00 | 0.00 | 83 | 1011.8 |
| 20260906005411 | 22 | 89 | 9.7 | 24.1 | 0.00 | 0.00 | 0.00 | 83 | 1011.8 |
| 20260906004909 | 22 | 30 | 9.7 | 24.1 | 0.00 | 0.00 | 0.00 | 83 | 1011.8 |
| 20260906004404 | 22 | 52 | 11.3 | 25.7 | 0.00 | 0.00 | 0.00 | 83 | 1011.7 |
| 20260906003858 | 22 | 84 | 11.3 | 25.7 | 0.00 | 0.00 | 0.00 | 82 | 1011.7 |
| 20260906003351 | 23 | 33 | 11.3 | 25.7 | 0.00 | 0.00 | 0.00 | 82 | 1011.7 |
| 20260906002845 | 23 | 57 | 11.3 | 25.7 | 0.00 | 0.00 | 0.00 | 82 | 1011.7 |
| 20260906002341 | 23 | 26 | 12.9 | 25.7 | 0.00 | 0.00 | 0.00 | 82 | 1011.7 |
| 20260906002049 | 23 | 64 | 11.3 | 22.5 | 0.00 | 0.00 | 0.00 | 82 | 1011.7 |
| 20260906001328 | 23 | 24 | 9.7 | 20.9 | 0.00 | 0.00 | 0.00 | 83 | 1011.8 |
| 20260906000816 | 23 | 342 | 8.0 | 20.9 | 0.00 | 0.00 | 0.00 | 82 | 1011.8 |
| 20260906000311 | 23 | 52 | 8.0 | 16.1 | 0.00 | 0.00 | 0.00 | 83 | 1011.8 |
| 20260906000031 | 23 | 37 | 9.7 | 20.9 | 0.00 | 0.00 | 0.00 | 83 | 1011.5 |
| 20260905235311 | 24 | 73 | 9.7 | 20.9 | 0.00 | 0.00 | 0.00 | 82 | 1011.5 |
| 20260905234811 | 24 | 46 | 8.0 | 17.7 | 0.00 | 0.00 | 0.00 | 82 | 1011.5 |
| 20260905234311 | 24 | 25 | 8.0 | 20.9 | 0.00 | 0.00 | 0.00 | 81 | 1011.4 |
| 20260905233811 | 24 | 100 | 8.0 | 20.9 | 0.00 | 0.00 | 0.00 | 80 | 1011.4 |
| 20260905233310 | 25 | 0 | 6.4 | 17.7 | 0.00 | 0.00 | 0.00 | 80 | 1011.4 |
| 20260905232810 | 25 | 82 | 8.0 | 20.9 | 0.00 | 0.00 | 0.00 | 80 | 1011.3 |
| 20260905232310 | 25 | 82 | 9.7 | 20.9 | 0.00 | 0.00 | 0.00 | 80 | 1011.3 |
| 20260905231806 | 25 | 5 | 11.3 | 22.5 | 0.00 | 0.00 | 0.00 | 79 | 1011.3 |
| 20260905231252 | 25 | 46 | 9.7 | 22.5 | 0.00 | 0.00 | 0.00 | 79 | 1011.0 |
| 20260905230742 | 25 | 49 | 9.7 | 20.9 | 0.00 | 0.00 | 0.00 | 78 | 1011.0 |
| 20260905230457 | 25 | 74 | 9.7 | 20.9 | 0.00 | 0.00 | 0.00 | 78 | 1011.0 |
| 20260905225952 | 26 | 46 | 9.7 | 20.9 | 0.00 | 0.00 | 0.00 | 78 | 1010.8 |